RYR62AD EPWR-EGNX

Flight info

Callsign RYR62AD
Flight time N/A
Altitude 28000
Route ULGIL Z348 NAROX/N0456F360 Z348 RENDO DCT DESAR DCT LARET DCT RKN DCT NIGUG DCT ODVIL DCT GALSO Q63 ERING L179 LAM L610 HEMEL
Aircraft B738/M-SDE2E3FGHIRWXY/LB1

Departure

Time 2026-05-08 17:39
Airport Copernicus Wrocław Airport (EPWR)

Arrival

Time N/A
Airport East Midlands Airport (EGNX)
Time Latitude Longitude Altitude Speed Heading
2026-05-08 16:59 51.10803 16.88219 402 ft 0 kts 26°
2026-05-08 17:24 51.10790 16.88209 400 ft 4 kts 26°
2026-05-08 17:24 51.10767 16.88192 398 ft 2 kts 26°
2026-05-08 17:24 51.10749 16.88181 402 ft 4 kts
2026-05-08 17:24 51.10729 16.88193 401 ft 4 kts 305°
2026-05-08 17:25 51.10721 16.88216 400 ft 1 kts 296°
2026-05-08 17:31 51.10723 16.88208 400 ft 2 kts 296°
2026-05-08 17:31 51.10737 16.88162 402 ft 7 kts 296°
2026-05-08 17:31 51.10767 16.88064 402 ft 14 kts 296°
2026-05-08 17:32 51.10812 16.87917 402 ft 16 kts 296°
2026-05-08 17:32 51.10858 16.87765 400 ft 15 kts 296°
2026-05-08 17:32 51.10903 16.87620 400 ft 14 kts 296°
2026-05-08 17:32 51.10945 16.87476 399 ft 14 kts 285°
2026-05-08 17:33 51.10888 16.87373 402 ft 14 kts 203°
2026-05-08 17:33 51.10804 16.87308 402 ft 13 kts 207°
2026-05-08 17:33 51.10723 16.87246 403 ft 13 kts 198°
2026-05-08 17:33 51.10655 16.87319 402 ft 14 kts 116°
2026-05-08 17:34 51.10612 16.87459 402 ft 14 kts 116°
2026-05-08 17:34 51.10573 16.87585 401 ft 14 kts 116°
2026-05-08 17:34 51.10528 16.87735 401 ft 16 kts 116°
2026-05-08 17:34 51.10476 16.87906 398 ft 19 kts 116°
2026-05-08 17:35 51.10412 16.88113 404 ft 22 kts 116°
2026-05-08 17:35 51.10340 16.88345 405 ft 24 kts 116°
2026-05-08 17:35 51.10267 16.88584 403 ft 24 kts 116°
2026-05-08 17:35 51.10215 16.88755 400 ft 25 kts 116°
2026-05-08 17:36 51.10137 16.89011 402 ft 26 kts 116°
2026-05-08 17:36 51.10061 16.89260 404 ft 24 kts 116°
2026-05-08 17:36 51.10003 16.89466 402 ft 19 kts 108°
2026-05-08 17:36 51.09985 16.89550 404 ft 5 kts 108°
2026-05-08 17:37 51.09973 16.89604 400 ft 6 kts 114°
2026-05-08 17:37 51.09954 16.89671 402 ft 7 kts 114°
2026-05-08 17:37 51.09928 16.89725 402 ft 2 kts 172°
2026-05-08 17:37 51.09919 16.89705 401 ft 2 kts 265°
2026-05-08 17:38 51.09931 16.89673 403 ft 5 kts 300°
2026-05-08 17:38 51.09948 16.89624 403 ft 5 kts 299°
2026-05-08 17:38 51.09959 16.89590 403 ft 5 kts 296°
2026-05-08 17:38 51.10043 16.89315 404 ft 61 kts 296°
2026-05-08 17:39 51.10330 16.88377 405 ft 125 kts 296°
2026-05-08 17:39 51.10782 16.86921 602 ft 157 kts 297°
2026-05-08 17:39 51.11266 16.85371 1363 ft 159 kts 298°
2026-05-08 17:39 51.11754 16.83743 2053 ft 165 kts 298°
2026-05-08 17:40 51.12288 16.81988 2438 ft 192 kts 297°
2026-05-08 17:40 51.12584 16.79771 2647 ft 220 kts 263°
2026-05-08 17:40 51.11834 16.77566 2976 ft 242 kts 221°
2026-05-08 17:40 51.10269 16.76415 3402 ft 259 kts 197°
2026-05-08 17:41 51.08714 16.75023 4138 ft 258 kts 230°
2026-05-08 17:41 51.07803 16.72618 5039 ft 255 kts 252°
2026-05-08 17:41 51.07584 16.69800 5742 ft 259 kts 274°
2026-05-08 17:41 51.07777 16.66929 6506 ft 263 kts 277°
2026-05-08 17:42 51.08024 16.64023 7225 ft 266 kts 277°
2026-05-08 17:42 51.08280 16.61091 7945 ft 269 kts 277°
2026-05-08 17:42 51.08538 16.58120 8680 ft 272 kts 277°
2026-05-08 17:42 51.08794 16.55119 9406 ft 275 kts 277°
2026-05-08 17:43 51.09050 16.52077 10128 ft 279 kts 277°
2026-05-08 17:43 51.09304 16.49008 10555 ft 292 kts 277°
2026-05-08 17:43 51.09579 16.45642 10720 ft 314 kts 277°
2026-05-08 17:43 51.09869 16.42073 10881 ft 335 kts 277°
2026-05-08 17:44 51.10167 16.38367 11191 ft 348 kts 277°
2026-05-08 17:44 51.10475 16.34518 11789 ft 352 kts 277°
2026-05-08 17:44 51.10773 16.30776 12480 ft 354 kts 276°
2026-05-08 17:44 51.11079 16.26909 13182 ft 356 kts 276°
2026-05-08 17:45 51.11389 16.22975 13885 ft 359 kts 276°
2026-05-08 17:45 51.11699 16.19015 14516 ft 363 kts 276°
2026-05-08 17:45 51.12012 16.15009 15163 ft 366 kts 276°
2026-05-08 17:45 51.12325 16.10964 15819 ft 368 kts 276°
2026-05-08 17:46 51.12635 16.06951 16460 ft 372 kts 276°
2026-05-08 17:46 51.12950 16.02851 17093 ft 375 kts 276°
2026-05-08 17:46 51.13268 15.98700 17740 ft 378 kts 276°
2026-05-08 17:46 51.13585 15.94527 18364 ft 381 kts 276°
2026-05-08 17:47 51.13905 15.90311 18900 ft 385 kts 276°
2026-05-08 17:47 51.14225 15.86064 19434 ft 387 kts 276°
2026-05-08 17:47 51.14546 15.81784 19981 ft 390 kts 276°
2026-05-08 17:47 51.14759 15.78936 20331 ft 392 kts 276°
2026-05-08 17:48 51.15190 15.73135 21022 ft 396 kts 276°
2026-05-08 17:48 51.15514 15.68756 21535 ft 399 kts 276°
2026-05-08 17:48 51.15830 15.64447 22033 ft 401 kts 276°
2026-05-08 17:48 51.16157 15.59980 22531 ft 404 kts 276°
2026-05-08 17:49 51.16481 15.55516 22999 ft 407 kts 276°
2026-05-08 17:49 51.16806 15.51022 23488 ft 410 kts 276°
2026-05-08 17:49 51.17133 15.46489 23926 ft 412 kts 275°
2026-05-08 17:49 51.17459 15.41928 24318 ft 414 kts 275°
2026-05-08 17:50 51.17785 15.37347 24697 ft 417 kts 275°
2026-05-08 17:50 51.18110 15.32751 25069 ft 419 kts 275°
2026-05-08 17:50 51.18433 15.28163 25448 ft 421 kts 275°
2026-05-08 17:50 51.18761 15.23469 25806 ft 423 kts 275°
2026-05-08 17:51 51.19087 15.18785 26158 ft 426 kts 275°
2026-05-08 17:51 51.19412 15.14078 26508 ft 427 kts 275°
2026-05-08 17:51 51.19738 15.09353 26859 ft 429 kts 275°
2026-05-08 17:51 51.20059 15.04654 27180 ft 432 kts 275°
2026-05-08 17:52 51.20383 14.99895 27507 ft 434 kts 275°
2026-05-08 17:52 51.20720 14.95082 27811 ft 436 kts 275°
2026-05-08 17:52 51.21405 14.85414 28147 ft 443 kts 275°
2026-05-08 17:53 51.21750 14.80521 28162 ft 443 kts 275°
2026-05-08 17:53 51.22425 14.70814 28152 ft 437 kts 275°
2026-05-08 17:54 51.23082 14.61236 28169 ft 438 kts 275°
2026-05-08 17:54 51.23737 14.51526 28158 ft 439 kts 275°
2026-05-08 17:55 51.24384 14.41829 28164 ft 440 kts 275°
2026-05-08 17:55 51.25024 14.32108 28161 ft 440 kts 275°
2026-05-08 17:56 51.25608 14.23141 28159 ft 440 kts 275°
2026-05-08 17:56 51.26235 14.13397 28156 ft 440 kts 275°
2026-05-08 17:57 51.26849 14.03740 28156 ft 439 kts 275°
2026-05-08 17:57 51.27457 13.94051 28156 ft 438 kts 275°
2026-05-08 17:58 51.28516 13.84490 28159 ft 438 kts 287°
2026-05-08 17:58 51.30297 13.75940 28155 ft 438 kts 288°
2026-05-08 17:59 51.32236 13.66713 28165 ft 438 kts 288°
2026-05-08 17:59 51.34127 13.57531 28165 ft 437 kts 287°
2026-05-08 18:00 51.36006 13.48264 28167 ft 437 kts 287°
2026-05-08 18:00 51.38801 13.34359 28169 ft 437 kts 287°
2026-05-08 18:01 51.40648 13.25112 28175 ft 437 kts 287°
2026-05-08 18:01 51.42503 13.15788 28178 ft 437 kts 287°
2026-05-08 18:02 51.44036 13.08052 28175 ft 437 kts 287°
2026-05-08 18:02 51.46169 12.97233 28182 ft 438 kts 287°
2026-05-08 18:03 51.47983 12.87983 28179 ft 438 kts 287°
2026-05-08 18:03 51.49631 12.79540 28181 ft 438 kts 287°
2026-05-08 18:04 51.51431 12.70276 28175 ft 438 kts 286°
2026-05-08 18:04 51.53236 12.60945 28188 ft 437 kts 286°
2026-05-08 18:05 51.55032 12.51611 28189 ft 437 kts 286°
2026-05-08 18:05 51.56825 12.42247 28191 ft 438 kts 286°
2026-05-08 18:06 51.58601 12.32928 28172 ft 428 kts 286°
2026-05-08 18:06 51.60311 12.23912 28181 ft 417 kts 286°
2026-05-08 18:07 51.61963 12.15153 28192 ft 419 kts 286°
2026-05-08 18:07 51.63654 12.06158 28191 ft 421 kts 286°
2026-05-08 18:08 51.65279 11.97064 28189 ft 422 kts 284°
2026-05-08 18:08 51.66808 11.87938 28189 ft 422 kts 284°
2026-05-08 18:09 51.68318 11.78891 28186 ft 421 kts 284°
2026-05-08 18:09 51.69855 11.69712 28188 ft 420 kts 284°
2026-05-08 18:10 51.71363 11.60686 28181 ft 419 kts 284°
2026-05-08 18:10 51.72873 11.51606 28186 ft 418 kts 284°
2026-05-08 18:11 51.74364 11.42589 28184 ft 418 kts 284°
2026-05-08 18:11 51.75854 11.33532 28184 ft 418 kts 284°
2026-05-08 18:12 51.77336 11.24475 28181 ft 418 kts 284°
2026-05-08 18:12 51.78805 11.15448 28184 ft 418 kts 284°
2026-05-08 18:13 51.80281 11.06333 28180 ft 419 kts 284°
2026-05-08 18:13 51.81753 10.97195 28183 ft 419 kts 284°
2026-05-08 18:14 51.83207 10.88115 28175 ft 419 kts 283°
2026-05-08 18:14 51.84235 10.78824 28175 ft 419 kts 278°
2026-05-08 18:15 51.85025 10.69488 28168 ft 419 kts 277°
2026-05-08 18:15 51.85814 10.60139 28169 ft 419 kts 277°
2026-05-08 18:16 51.86616 10.50845 28170 ft 419 kts 277°
2026-05-08 18:16 51.87430 10.41473 28169 ft 419 kts 277°
2026-05-08 18:17 51.88240 10.32110 28167 ft 419 kts 277°
2026-05-08 18:17 51.89036 10.22814 28170 ft 419 kts 277°
2026-05-08 18:18 51.89835 10.13385 28168 ft 420 kts 277°
2026-05-08 18:18 51.90617 10.04069 28176 ft 420 kts 277°
2026-05-08 18:19 51.91395 9.94701 28168 ft 420 kts 277°
2026-05-08 18:19 51.92167 9.85312 28162 ft 420 kts 277°
2026-05-08 18:20 51.92932 9.75924 28167 ft 420 kts 277°
2026-05-08 18:20 51.93685 9.66582 28163 ft 420 kts 277°
2026-05-08 18:21 51.94434 9.57200 28153 ft 420 kts 277°
2026-05-08 18:21 51.95177 9.47790 28164 ft 420 kts 277°
2026-05-08 18:22 51.95910 9.38415 28154 ft 421 kts 277°
2026-05-08 18:22 51.96637 9.29004 28158 ft 421 kts 277°
2026-05-08 18:23 51.97360 9.19566 28149 ft 421 kts 277°
2026-05-08 18:23 51.98074 9.10131 28157 ft 422 kts 277°
2026-05-08 18:24 51.98662 9.02288 28158 ft 422 kts 277°
2026-05-08 18:24 51.99363 8.92837 28145 ft 422 kts 276°
2026-05-08 18:25 52.00057 8.83370 28151 ft 422 kts 276°
2026-05-08 18:25 52.00744 8.73899 28147 ft 422 kts 276°
2026-05-08 18:26 52.01419 8.64482 28146 ft 422 kts 276°
2026-05-08 18:26 52.02090 8.55014 28151 ft 422 kts 276°
2026-05-08 18:27 52.02648 8.47069 28148 ft 422 kts 276°
2026-05-08 18:27 52.03414 8.36009 28145 ft 423 kts 276°
2026-05-08 18:28 52.04060 8.26576 28143 ft 423 kts 276°
2026-05-08 18:28 52.04703 8.17059 28141 ft 423 kts 276°
2026-05-08 18:29 52.05338 8.07557 28145 ft 423 kts 276°
2026-05-08 18:29 52.05965 7.98043 28152 ft 423 kts 276°
2026-05-08 18:30 52.06585 7.88531 28158 ft 423 kts 276°
2026-05-08 18:30 52.07198 7.78991 28158 ft 424 kts 276°
2026-05-08 18:31 52.07799 7.69525 28155 ft 424 kts 276°
2026-05-08 18:31 52.08397 7.59981 28162 ft 424 kts 276°
2026-05-08 18:32 52.08987 7.50446 28157 ft 424 kts 276°
2026-05-08 18:32 52.09569 7.40901 28146 ft 424 kts 276°
2026-05-08 18:33 52.10144 7.31341 28144 ft 424 kts 276°
2026-05-08 18:33 52.10713 7.21773 28132 ft 425 kts 276°
2026-05-08 18:34 52.11269 7.12270 28121 ft 425 kts 276°
2026-05-08 18:34 52.11822 7.02699 28121 ft 425 kts 276°
2026-05-08 18:35 52.12366 6.93126 28124 ft 425 kts 276°
2026-05-08 18:35 52.12906 6.83542 28123 ft 425 kts 276°
2026-05-08 18:36 52.13244 6.73940 28114 ft 426 kts 267°
2026-05-08 18:36 52.12725 6.64359 28112 ft 426 kts 265°